Miscellaneous Local Product
Issued by NWS North Platte, NE

Home | Current Version | Previous Version | Text Only | Print | Product List | Glossary On
Versions: 1 2 3 4 5 6 7 8 9 10 11 12 13 14 15 16 17 18 19 20 21 22 23 24 25 26 27 28 29 30 31 32 33 34 35 36 37 38 39 40 41 42 43 44 45 46 47 48 49 50
000
AXUS43 KLBF 281410
MISLBF


WESTERN AND NORTH CENTRAL NEBRASKA HOURLY WEATHER ROUNDUP
NATIONAL WEATHER SERVICE NORTH PLATTE NE
900 AM CDT FRI APR 28 2017

NOTE: "FAIR" INDICATES FEW OR NO CLOUDS BELOW 12,000 FEET WITH NO
SIGNIFICANT WEATHER AND/OR OBSTRUCTIONS TO VISIBILITY.

NOTE: STATIONS NOT REPORTING VARIABLES SUCH AS SKY/WEATHER OR
PRESSURE ARE PROVIDED BY RAWS AND APRS NETWORKS AND ARE NOT UNDER
NATIONAL WEATHER SERVICE QUALITY CONTROL.

...OBSERVATIONS IN AND NEAR THE EASTERN PANHANDLE OF NEBRASKA...

CITY           SKY/WX    TMP DP  RH WIND       PRES   REMARKS
PINE RIDGE     LGT SNOW  34  33  96 E16G23    29.80R VSB 3/4 WCI  24
CHADRON        LGT SNOW  35  32  88 E17       29.78R FOG     WCI  25
ALLIANCE       SNOW      33  32  96 E18       29.72R VSB 1/2 WCI  22
SIDNEY         LGT SNOW  32  31  96 E9        29.69R VSB 3/4 WCI  24
CRESCENT LAKE    N/A     33  33 100 E8          N/A  WCI  26
$$

...OBSERVATIONS IN NORTHERN NEBRASKA AND FAR SOUTHERN SOUTH DAKOTA...

CITY           SKY/WX    TMP DP  RH WIND       PRES   REMARKS
WINNER         FAIR      39  31  72 E10       29.88R WCI  32
VALENTINE      CLOUDY    39  28  64 E14       29.84R WCI  31
THEDFORD       LGT SNOW  34  33  98 NE14      29.78R VSB 3/4 WCI  24
AINSWORTH      CLOUDY    37  33  88 E12       29.83R WCI  29
O`NEILL        CLOUDY    37  31  77 E12       29.85R WCI  30
ORD            LGT SNOW  33  31  92 NE15      29.77S VSB 1   WCI  23
BROKEN BOW     LGT SNOW  34  33  96 NE15      29.75R FOG     WCI  24
VALENTINE NWR    N/A     33  33  99 E13         N/A  WCI  24
HALSEY           N/A     50  28  43 NE6G14      N/A
BUTTE            N/A     36  30  79 N8G15       N/A  WCI  30
CHAMBERS         N/A     34  33  95 E3          N/A
EWING            N/A     34  32  93 E12G18      N/A  WCI  25
$$

...OBSERVATIONS IN SOUTHWEST NEBRASKA AND FAR NORTHEAST COLORADO...

CITY           SKY/WX    TMP DP  RH WIND       PRES   REMARKS
HOLYOKE        LGT RAIN  37  36  93 E8        29.69R WCI  31
IMPERIAL       CLOUDY    36  34  92 NE9       29.70R WCI  29
OGALLALA       FLURRIES  35  34  97 NE7       29.72R WCI  29
NORTH PLATTE   LGT SNOW  35  34  96 NE9       29.72R FOG     WCI  28
MCCOOK         LGT RAIN  43  42  97 N15       29.65R
LEXINGTON      LGT RAIN  40  38  92 NE20      29.69R WCI  31
STAPLETON        N/A     31  30  96 NE5         N/A  WCI  26
GOTHENBURG       N/A     39  36  89 NE9         N/A  WCI  33
CALLAWAY         N/A     35  33  94 E12         N/A  WCI  27
$$

...OBSERVATIONS IN CENTRAL LINCOLN COUNTY AREA...

CITY           SKY/WX    TMP DP  RH WIND       PRES   REMARKS
N.P. AIRPORT   LGT SNOW  35  34  96 NE9       29.72R FOG     WCI  28
N.P. DOWNTOWN    N/A     34  33  95 NE8         N/A  WCI  27
N.P. SOUTHEAST   N/A     34  32  93 NE5         N/A  WCI  30
N.P. HILLCREST   N/A     34  33  96 E16         N/A  WCI  24
$$

...SOME OBSERVATIONS FROM AROUND THE REGION...

CITY           SKY/WX    TMP DP  RH WIND       PRES   REMARKS
DENVER         MOSUNNY   43  20  39 SW9       29.65R
LIMON          SUNNY     38  31  76 W7        29.67S WCI  33
ASPEN          CLOUDY    24  23  96 S6        29.74R WCI  17
LARAMIE        MOSUNNY   33  20  58 SW16      29.65R WCI  23
CASPER         SNOW      31  30  96 N20       29.72R VSB 1/2 WCI  19
CHEYENNE       CLOUDY    33  23  66 N5        29.66R WCI  29
SCOTTSBLUFF    SNOW      33  32  96 E9        29.70R VSB 1/2 WCI  25
GRAND ISLAND   LGT RAIN  38  38 100 NE20G31   29.72S FOG     WCI  28
OMAHA          LGT RAIN  38  33  82 NE21      29.81S WCI  28
SIOUX FALLS    PTSUNNY   36  31  82 NE6       29.92R WCI  31
PIERRE         PTSUNNY   36  29  75 E18       29.92R WCI  26
RAPID CITY     CLOUDY    36  30  79 NE10      29.87R WCI  28
BISMARCK       SUNNY     39  29  67 CALM      30.00R
KANSAS CITY    CLOUDY    52  51  97 E15       29.67R
HILL CITY      SUNNY     48  44  86 W13       29.62R
WICHITA        CLOUDY    55  52  89 NW5       29.64R
DODGE CITY     SUNNY     49  41  74 NW15      29.65R
OKLAHOMA CITY  CLOUDY    61  56  83 S13       29.60R
DALLAS         CLOUDY    73  65  75 SW13      29.61R
AMARILLO       SUNNY     53  42  66 NW10      29.69S
$$




USA.gov is the U.S. government's official web portal to all federal, state and local government web resources and services.